Regional Weather Roundup
Issued by NWS Upton, NY

Home | Current Version | Previous Version | Text Only | Print | Product List | Glossary On
Versions: 1 2 3 4 5 6 7 8 9 10 11 12 13 14 15 16 17 18 19 20 21 22 23 24 25 26 27 28 29 30 31 32 33 34 35 36 37 38 39 40 41 42 43 44 45 46 47 48 49 50
000
ASUS41 KOKX 060304
RWROKX

REGIONAL WEATHER ROUNDUP
NATIONAL WEATHER SERVICE NEW YORK NY
1000 PM EST FRI FEB 05 2016

NOTE: "FAIR" INDICATES FEW OR NO CLOUDS BELOW 12,000 FEET WITH NO
SIGNIFICANT WEATHER AND/OR OBSTRUCTIONS TO VISIBILITY.

NYZ071-072-176-178-NJZ106-104-060400-
NEW YORK CITY METRO AREA


CITY           SKY/WX    TMP DP  RH WIND       PRES   REMARKS
CENTRAL PARK   CLEAR     33  14  45 NW7       30.34R WCI  27
LAGUARDIA APRT CLEAR     35  17  47 NW16G26   30.30R WCI  25
KENNEDY INTL   CLEAR     34  14  43 NW13      30.32R WCI  25
NEWARK/LIBERTY PTCLDY    33  15  47 NW12      30.33R WCI  24
BRNX BOT. GARD   N/A     32  16  51 NW5       30.32S WCI  27
TETERBORO      PTCLDY    32  15  49 NW9       30.32R WCI  24
$$

NYZ177-179-078>081-060400-
LONG ISLAND NEW YORK

CITY           SKY/WX    TMP DP  RH WIND       PRES   REMARKS
FARMINGDALE    CLEAR     32  18  56 NW7       30.30R WCI  26
ISLIP          CLEAR     29  16  58 W6        30.27R WCI  23
SHIRLEY        CLEAR     26  16  65 NW8       30.29R WCI  18
RIVERHEAD        N/A     34  16  47 W6        30.29R WCI  29
WESTHAMPTON      N/A    N/A N/A N/A MISG      30.29R
EAST HAMPTON   FAIR      32  20  61 NW10G18   30.24R WCI  23
MONTAUK POINT    N/A     34  21  59 NW14G24   30.24R WCI  25
$$

NYZ052-065-067-060400-
HUDSON VALLEY

CITY           SKY/WX    TMP DP  RH WIND       PRES   REMARKS
WHITE PLAINS   CLEAR     31  14  49 W17       30.26S WCI  19
NEWBURGH       NOT AVBL
MONTGOMERY     CLEAR     30  15  53 NW6       30.29R WCI  24
POUGHKEEPSIE   PTCLDY    32  11  41 NW5       30.30R WCI  27
ALBANY         CLEAR     27  13  55 W6        30.30R WCI  20
$$

NJZ001-105-106-008-010-013-015-019>022-104-060400-
NEW JERSEY

CITY           SKY/WX    TMP DP  RH WIND       PRES   REMARKS
NEWARK/LIBERTY PTCLDY    33  15  47 NW12      30.33R WCI  24
TETERBORO      PTCLDY    32  15  49 NW9       30.32R WCI  24
CALDWELL       PTCLDY    32  13  45 CALM      30.33R
MORRISTOWN     CLEAR     30  18  59 CALM      30.34R
SOMERVILLE     CLEAR     32  15  49 NW5       30.33R WCI  27
SUSSEX         CLEAR     30  14  51 CALM      30.31R
ANDOVER          N/A     29  15  56 VRB5      30.32R WCI  24
TRENTON        CLEAR     32  16  51 N7        30.34R WCI  26
MILLVILLE      CLEAR     25  22  88 CALM      30.35R
ATLANTIC CITY  CLEAR     29  22  75 NW5       30.35R WCI  24
WRIGHTSTOWN    CLEAR     32  19  58 NW8       30.32R WCI  25
TOMS RIVER     PTCLDY    30  16  55 NW6       30.34R WCI  24
BELMAR         PTCLDY    30  12  47 NW6       30.33R WCI  24
$$

PAZ047>061-062-071-060400-
EASTERN PENNSYLVANIA

CITY           SKY/WX    TMP DP  RH WIND       PRES   REMARKS
PHILADELPHIA   PTCLDY    35  16  45 N6        30.37R WCI  30
ALLENTOWN      CLEAR     30  16  56 N3        30.34R
SCRANTON       CLEAR     25  15  66 CALM      30.31R
$$

CTZ002-004>006-009-010-012-RIZ004-006-007-MAZ004-011-015-060400-
SOUTHERN NEW ENGLAND
 IN CT

CITY           SKY/WX    TMP DP  RH WIND       PRES   REMARKS
BRADLEY INTL   CLEAR     28  14  55 NW10      30.25R WCI  19
HARTFORD       CLEAR     31  15  52 NW7       30.27R WCI  24
DANBURY        CLEAR     30   8  39 CALM      30.28R
WTRBRY/OXFORD  CLEAR     28   9  43 NW10      30.25R WCI  19
BRIDGEPORT     PTCLDY    29  15  56 W5        30.29R WCI  24
MERIDEN        CLEAR     31  14  49 NW9       30.27R WCI  23
NEW HAVEN      CLEAR     32  15  49 NW7       30.27R WCI  26
CHESTER        FAIR      32  18  55 NW10G20   30.24R WCI  24
GROTON         CLEAR     26  20  77 NW7       30.24R WCI  18
WILLIMANTIC    PTCLDY    28  17  63 N3        30.24R

 IN RI

CITY           SKY/WX    TMP DP  RH WIND       PRES   REMARKS
PROVIDENCE     CLEAR     28  19  69 NW9       30.21R WCI  19
BLOCK ISLAND   CLEAR     30  21  69 N15G25    30.21R WCI  19
WESTERLY       CLEAR     27  21  78 NW6       30.23R WCI  20

 IN MA

CITY           SKY/WX    TMP DP  RH WIND       PRES   REMARKS
BOSTON         CLEAR     27  17  66 NW16      30.21R WCI  15
WORCESTER      CLEAR     23  13  65 NW17      30.16R WCI   9
WESTFIELD      CLEAR     28  12  51 N7        30.24R WCI  21
PROVINCETOWN   CLEAR     28  23  81 NW26G32   30.18R WCI  13
NANTUCKET      CLEAR     31  23  72 NW22G30   30.16R WCI  18
$$

ANZ330-335-338-340-345-350-353-355-060400-
COASTAL MARINE OBSERVATIONS


STATION/POSITION TIME  SKY/WX   TEMP    WIND        PRES    VSBY  WAVE
                                AIR SEA DIR/SP/G                  HT/PER
                 (UTC)          (F)     (DEG/KT/KT) (MB)    (MI)  (FT/S)
NY HARB ENTRANCE 0150            38 44  320/ 21/ 25 1025.0          4/ 4
4S FIRE IS       NOT AVBL
20S FIRE ISLAND  0150            39 45  330/ 23/ 29 1024.3          5/ 6
GREAT SOUTH BAY  NOT AVBL
23SW MTP         0250            38 46  320/ 25/ 31 1023.1          5/ 5
HUDSON CANYON    0150            42 51              1023.9         10/ 7
KINGS POINT      0200            35 39  360/ 12/ 15 1025.7
EXECUTION ROCKS  NOT AVBL
CENTRAL LI SOUND 0230            36     310/ 17/ 21   N/A           3/ 4
EASTERN LI SOUND 0200            35 41  300/ 17/ 21   N/A
ROBBINS REEF     0200            35     310/ 11/ 14 1025.8
$$


>>>>>>>>>>>>>>>>>>>>>>>>>>>> KEY <<<<<<<<<<<<<<<<<<<<<<<<<<<
>                                                          <
>     SKY/WX - SKY CONDITION/PRESENT WEATHER               <
>     TMP    - TEMPERATURE IN FAHRENHEIT                   <
>     DP     - DEWPOINT IN FAHRENHEIT                      <
>     RH     - RELATIVE HUMIDITY IN PERCENT                <
>     WIND   - DIRECTION AND SPEED IN MPH                  <
>     PRES   - MEAN SEA LEVEL PRESSURE IN INCHES OF HG     <
>     WCI    - WIND CHILL INDEX                            <
>     VSB    - VISIBILITY IN MILES                         <
>     HX     - HEAT INDEX                                  <
>     TC     - TEMPERATURE IN CELSIUS                      <
>     VRB    - VARIABLE WIND DIRECTION                     <
>                                                          <
>>>>>>>>>>>>>>>>>>>>>>>>>>>> KEY <<<<<<<<<<<<<<<<<<<<<<<<<<<





USA.gov is the U.S. government's official web portal to all federal, state and local government web resources and services.